Lid_Strength_Index
3 2 3 2 2 1 2 1 1 1 1 1 2 2 2 1 1 0 0 0 0 0 0 0 0 0 1 1 1 1 2 2 1 2 2 2 1 2 1 1 1 0 -0
4 3 3 2 2 2 2 2 1 1 1 1 1 1 1 1 1 0 0 0 1 1 0 0 1 0 1 1 1 1 2 2 1 3 4 5 3 3 2 2 2 1 0
4 4 3 3 2 2 2 2 1 1 1 1 1 1 1 1 2 1 1 0 0 1 0 0 0 0 1 1 1 1 2 3 2 1 4 6 6 5 3 2 2 2 2
4 4 3 3 3 2 1 1 1 1 1 1 1 2 2 3 2 2 1 1 0 1 0 0 0 1 0 1 1 0 1 2 3 2 1 2 4 6 6 4 2 2 2
4 4 3 3 2 2 2 1 1 1 1 1 1 2 2 2 1 1 1 1 1 0 0 0 0 0 0 0 1 1 1 1 2 2 3 4 5 5 7 8 6 4 2
4 4 3 3 3 2 2 2 2 2 1 1 1 2 2 2 2 2 2 2 1 1 0 0 0 0 0 1 1 1 1 1 2 2 3 5 7 7 7 8 7 7 5
4 4 4 3 3 3 2 2 2 2 1 1 1 1 2 2 2 2 2 3 2 1 1 1 1 1 0 0 0 1 1 2 3 3 3 3 5 5 6 6 7 6 5
4 4 3 3 3 2 2 2 2 2 2 1 1 1 1 1 1 1 1 2 1 1 0 1 1 0 0 0 0 1 2 2 4 4 4 3 4 5 5 5 6 7 6
5 4 3 3 3 2 2 2 2 2 2 1 1 1 1 1 2 1 1 1 1 1 1 1 1 1 0 1 1 1 1 2 3 5 6 4 4 3 4 4 4 5 7
4 4 4 3 2 2 2 2 2 2 2 1 1 1 1 1 1 1 1 1 2 1 1 1 1 1 1 0 1 2 2 3 4 5 7 6 5 3 2 3 4 4 5
5 5 4 3 2 2 2 2 2 2 2 2 1 1 1 1 1 1 1 1 1 1 1 1 1 1 1 1 1 2 2 3 4 6 5 7 3 3 3 3 3 4 4
5 5 4 3 3 3 2 2 2 2 2 1 1 1 1 1 1 1 1 1 1 1 1 1 1 1 1 1 1 2 3 2 5 6 7 8 2 4 3 3 4 4 3
5 5 4 4 3 3 3 3 2 2 2 2 2 2 2 1 1 1 1 1 1 1 1 1 1 1 1 1 1 3 3 3 5 6 8 6 4 4 4 3 4 3 3
5 5 5 4 4 3 3 3 3 2 2 2 2 2 2 1 1 1 1 1 1 1 1 1 1 1 1 1 1 2 3 5 6 7 6 5 6 6 5 5 4 4 5
6 5 5 4 4 5 4 2 2 3 2 2 2 2 1 1 1 1 1 1 1 1 1 1 1 1 1 1 1 2 3 6 8 6 6 7 4 3 4 5 6 5 5
6 5 4 5 4 3 3 3 3 2 2 2 2 2 2 1 1 1 1 1 1 1 1 1 1 1 1 3 4 2 4 6 8 8 7 7 3 4 3 2 2 4 6
5 5 5 4 4 4 3 3 2 2 2 2 2 2 2 2 2 1 1 1 1 1 1 1 1 1 1 4 5 4 4 6 8 8 8 8 6 6 6 3 2 2 2
5 5 4 4 3 3 3 2 2 2 2 2 2 2 2 2 2 2 2 2 1 2 2 1 1 2 1 6 6 5 4 6 7 7 8 8 7 7 6 5 5 6 5
4 4 3 3 3 3 2 2 2 2 2 3 2 2 2 2 2 2 2 2 2 2 2 1 1 2 2 7 8 5 5 7 8 7 6 8 7 5 3 5 6 7 6
4 3 3 3 3 2 2 3 3 3 4 3 2 2 2 2 2 2 2 2 1 2 1 1 1 3 2 9 9 5 5 8 8 7 6 5 6 6 5 5 6 6 7
4 3 3 3 3 2 2 3 3 3 4 3 3 2 1 2 2 2 1 2 2 2 2 2 1 1 2 6 10 8 5 7 8 7 6 6 8 9 8 5 3 4 5
4 3 3 3 2 2 2 4 4 3 2 3 3 2 1 1 1 2 2 2 2 2 2 2 2 1 2 8 10 10 9 7 6 8 6 8 10 10 9 7 8 6 4
3 3 3 3 2 2 3 4 3 3 3 3 2 2 2 2 1 2 2 2 2 2 3 3 3 3 2 5 10 11 10 9 7 7 7 10 12 10 10 7 8 7 7
3 3 3 3 3 2 2 3 2 3 3 3 2 2 3 3 2 3 2 4 4 3 3 3 3 3 2 4 7 7 8 9 7 8 9 11 11 9 8 9 8 7 6
3 3 3 3 3 2 3 3 4 2 3 2 2 3 3 2 2 4 6 4 8 8 4 4 4 4 3 4 7 7 6 6 7 10 9 11 11 10 9 8 8 6 7
3 3 3 3 3 2 3 3 3 3 3 3 4 3 3 2 2 2 5 12 13 14 15 15 11 9 13 16 13 13 12 13 12 8 9 9 9 9 8 8 8 7 5